Aeroporto :
LOGIN :

Iscrizione | Disclaimer

   EN    FR    IT 

 










Sommario :    VFR   VFR Marginale   IFR   IFR Intensivo   IFR Molto Intensivo
Visibilità : 
Base nubi : 
>= 8 km
>= 3000ft
5 / 8 km
1000 / 3000 ft
1500m / 5 km
500 / 1000 ft
800 / 1500m
200 / 500 ft
< 800m
< 200 ft
Simboli :   Temporali  Nebbia  Neve Forte  Precipitazioni Forti  Vento > 20 kt
SIGMETs :   Varie  Temporali  Ghiacco  Turbolenza  Onda orograficha  Ceneri Vulcaniche






- Altitudine del aeroporto : 598 ft
- Codice IATA : BQH


EGKB - Biggin Hill

ULTIMO METAR :
  • 171820Z 19004KT CAVOK 04/02 Q1039

METARs OBSOLETI :
  • 171750Z 20006KT CAVOK 03/02 Q1039
  • 171720Z 22004KT CAVOK 05/02 Q1039
  • 171650Z 31003KT CAVOK 05/02 Q1038
  • 171620Z 28002KT CAVOK 06/02 Q1038
  • 171550Z 31001KT CAVOK 06/02 Q1038

TAF TAF EGKB
Valido dal 17 a 18 ore il 17 a 23 ore UTC


171654Z 1718/1723 VRB03KT CAVOK
PROB30 1718/1723 3000 BR



MetMap, La meteo Aeronautica in un colpo d'occhio ! - Copyright ORBIFLY Dicembre 2007 - Disclaimer

ORBIFLY MET'MAP TEAM :

Programmazione e sviluppo : Alexandra Zaïnal
Concezione : Baudouin d'Aumeries
Aiuto per la programmazione : Marc-Olivier Méhu
Supporto tecnico e logistico : Manuel Goepfert
Aiuto per la traduzione : Arnaldo La Scala

Contatto : metmap@orbifly.com




FONTI E CREDITI :

   NOAA